Simultaneous Nadir Overpasses (SNOs) Predictions

Prediction of SNOs between GOES-15 and NOAA-19 Satellite Orbit:

Table of predicted SNOs for the next 14.0 days since TLE Epoch: 11/25/2016
Index Date Time (GOES-15) GOES-15 Lat,Lon NOAA-19 Lat,Lon Distance(km) Time Diff (sec)
1 11/25/2016 23:50:40 0.06,-135.35 0.46,-133.49 211.65 80
2 11/28/2016 12:09:36 -0.08,-135.40 0.66,-138.65 370.28 80
3 11/29/2016 11:58:11 -0.07,-135.41 0.05,-135.87 53.36 80
4 11/30/2016 11:49:28 -0.07,-135.41 -0.61,-133.10 263.42 80
5 12/03/2016 00:08:41 0.09,-135.36 -0.59,-138.32 337.46 80
6 12/03/2016 23:57:16 0.08,-135.36 0.02,-135.54 21.42 80
7 12/04/2016 23:48:33 0.07,-135.35 0.68,-132.77 294.60 80
8 12/07/2016 12:07:27 -0.10,-135.37 0.49,-137.91 290.62 80
9 12/08/2016 11:58:42
